Weather History for Sevilla, Spain

Change the Weather History Date:

Saturday, November 19, 2011

  Actual Average Record
Temperature  
Mean Temperature 57 °F -  
Max Temperature 59 °F 62 °F 69 °F (2003)
Min Temperature 55 °F 45 °F 39 °F (2004)
Degree Days  
Heating Degree Days 8    
Growing Degree Days 7 (Base 50)    
Moisture  
Dew Point 55 °F    
Average Humidity 90    
Maximum Humidity 100    
Minimum Humidity 77    
Precipitation  
Precipitation 0.00 in - - ()
Sea Level Pressure  
Sea Level Pressure 29.77 in    
Wind  
Wind Speed 5 mph ()    
Max Wind Speed 18 mph    
Max Gust Speed -    
Visibility 5.8 miles    
Events Rain    
Averages and records for this station are not official NWS values.
T = Trace of Precipitation, MM = Missing Value Source: Averaged Metar Reports

Daily Weather History Graph

Daily Weather History Graph

Search for Another Location

Airport:

Trip Planner

Search our weather history database for the weather conditions in past years. The results will help you decide how hot, cold, wet, or windy it might be!

Date:

Astronomy

Nov. 19, 2011 Rise Set
Actual Time 8:06 AM CET 6:10 PM CET
Civil Twilight 7:38 AM CET 6:38 PM CET
Nautical Twilight 7:06 AM CET 7:10 PM CET
Astronomical Twilight 6:35 AM CET 7:41 PM CET
Moon 1:19 AM CET (11/19) 2:13 PM CET (11/19)
Length of Visible Light 11h 00m
Length of Day
10h 03m
Last Quarter, 41% of the Moon is Illuminated
Nov 19
Last Quarter
Nov 25
New
Dec 2
First Quarter
Dec 10
Full
Dec 18
Last Quarter

Hourly Weather History & Observations

Time (CET) Temp. Dew Point Humidity Pressure Visibility Wind Dir Wind Speed Gust Speed Precip Events Conditions
12:00 AM 59.0 °F 53.6 °F 82% 29.92 in 6.2 mi SE 3.5 mph - N/A   Mostly Cloudy
12:30 AM 59.0 °F 53.6 °F 82% 29.89 in 6.2 mi SSE 3.5 mph - N/A   Mostly Cloudy
1:00 AM 59.0 °F 53.6 °F 82% 29.89 in 6.2 mi Variable 2.3 mph - N/A   Mostly Cloudy
4:30 AM 59.0 °F 51.8 °F 77% 29.83 in 6.2 mi ENE 2.3 mph - N/A Rain Light Rain
5:00 AM 59.0 °F 53.6 °F 82% 29.83 in 6.2 mi East 2.3 mph - N/A   Scattered Clouds
5:30 AM 57.2 °F 53.6 °F 88% 29.83 in 6.2 mi East 3.5 mph - N/A   Scattered Clouds
6:00 AM 57.2 °F 53.6 °F 88% 29.83 in 6.2 mi ENE 3.5 mph - N/A   Scattered Clouds
6:30 AM 57.2 °F 53.6 °F 88% 29.80 in 6.2 mi ENE 3.5 mph - N/A Rain Light Rain
7:00 AM 57.2 °F 53.6 °F 88% 29.80 in 6.2 mi ENE 3.5 mph - N/A   Light Drizzle
7:30 AM 57.2 °F 55.4 °F 94% 29.80 in 6.2 mi Variable 1.2 mph - N/A   Drizzle
8:00 AM 57.2 °F 53.6 °F 88% 29.77 in 6.2 mi East 3.5 mph - N/A   Drizzle
8:30 AM 57.2 °F 53.6 °F 88% 29.77 in 6.2 mi ESE 3.5 mph - N/A Rain Light Rain
9:00 AM 57.2 °F 53.6 °F 88% 29.80 in 6.2 mi Variable 2.3 mph - N/A Rain Rain
9:30 AM 57.2 °F 55.4 °F 94% 29.80 in 6.2 mi Calm Calm - N/A Rain Rain
10:00 AM 57.2 °F 55.4 °F 94% 29.80 in 6.2 mi Calm Calm - N/A Rain Light Rain
10:30 AM 57.2 °F 55.4 °F 94% 29.83 in 5.0 mi Calm Calm - N/A Rain Rain
11:00 AM 57.2 °F 55.4 °F 94% 29.83 in 4.3 mi Variable 1.2 mph - N/A Rain Rain
11:30 AM 57.2 °F 55.4 °F 94% 29.80 in 4.3 mi SE 5.8 mph - N/A Rain Rain
12:00 PM 59.0 °F 55.4 °F 88% 29.80 in 4.3 mi SE 12.7 mph - N/A Rain Rain
12:30 PM 57.2 °F 55.4 °F 94% 29.77 in 6.2 mi SSE 15.0 mph - N/A   Mostly Cloudy
1:00 PM 57.2 °F 55.4 °F 94% 29.77 in 6.2 mi South 12.7 mph - N/A Rain Light Rain
1:30 PM 57.2 °F 55.4 °F 94% 29.74 in 5.6 mi SSE 12.7 mph - N/A Rain Light Rain
2:00 PM 57.2 °F 55.4 °F 94% 29.74 in 5.0 mi SSE 13.8 mph - N/A Rain Light Rain
2:30 PM 57.2 °F 53.6 °F 88% 29.71 in 4.3 mi SSE 18.4 mph - N/A Rain Rain
3:00 PM 57.2 °F 53.6 °F 88% 29.71 in 6.2 mi SSE 15.0 mph - N/A   Scattered Clouds
3:30 PM 59.0 °F 55.4 °F 88% 29.71 in 6.2 mi South 15.0 mph - N/A   Scattered Clouds
4:00 PM 59.0 °F 55.4 °F 88% 29.71 in 6.2 mi South 15.0 mph - N/A Rain Light Rain Showers
4:06 PM 59.0 °F 55.4 °F 88% 29.71 in 2.5 mi South 13.8 mph - N/A Rain Rain Showers
4:14 PM 57.2 °F 55.4 °F 94% 29.71 in 5.0 mi South 11.5 mph - N/A Rain Light Rain
4:30 PM 57.2 °F 55.4 °F 94% 29.71 in 6.2 mi SSW 6.9 mph - N/A Rain Light Rain
5:00 PM 59.0 °F 55.4 °F 88% 29.71 in 6.2 mi South 8.1 mph - N/A   Partly Cloudy
5:30 PM 59.0 °F 55.4 °F 88% 29.71 in 6.2 mi South 4.6 mph - N/A   Partly Cloudy
6:00 PM 59.0 °F 55.4 °F 88% 29.71 in 6.2 mi SSW 3.5 mph - N/A   Partly Cloudy
6:30 PM 57.2 °F 55.4 °F 94% 29.74 in 6.2 mi Variable 2.3 mph - N/A   Partly Cloudy
7:00 PM 57.2 °F 55.4 °F 94% 29.74 in 6.2 mi South 2.3 mph - N/A   Partly Cloudy
7:30 PM 57.2 °F 55.4 °F 94% 29.74 in 6.2 mi South 2.3 mph - N/A   Partly Cloudy
8:00 PM 57.2 °F 55.4 °F 94% 29.77 in 6.2 mi South 2.3 mph - N/A   Partly Cloudy
8:30 PM 57.2 °F 55.4 °F 94% 29.74 in 6.2 mi SE 4.6 mph - N/A   Partly Cloudy
9:00 PM 57.2 °F 55.4 °F 94% 29.77 in 6.2 mi SE 4.6 mph - N/A   Partly Cloudy
9:30 PM 55.4 °F 55.4 °F 100% 29.77 in 6.2 mi SSE 4.6 mph - N/A   Partly Cloudy
10:00 PM 55.4 °F 53.6 °F 94% 29.77 in 6.2 mi SSE 3.5 mph - N/A   Partly Cloudy
10:30 PM 57.2 °F 53.6 °F 88% 29.77 in 6.2 mi Variable 2.3 mph - N/A   Partly Cloudy
11:00 PM 57.2 °F 53.6 °F 88% 29.77 in 6.2 mi Variable 2.3 mph - N/A   Partly Cloudy
11:30 PM 55.4 °F 53.6 °F 94% 29.77 in 6.2 mi ESE 2.3 mph - N/A   Partly Cloudy